Flag for Poland Weather past 2 weeks in Olsztyn, Poland

Now
44 °F

Quite cool.


Feels Like: 40 °F
Forecast: 37 / 50 °F
Wind: 6 mph from Northwest

Location: Ketrzyn

Current Time: Apr 19, 2015 at 8:25:12 PM

Latest Report: Apr 19, 2015 at 7:00 PM


Visibility: 28 mi

Pressure: 30.01 "Hg

Humidity: 63%

Dew point: 32 °F

Location of OlsztynLocation

Historic Weather in Olsztyn — Graph

°F

Olsztyn temperature yesterday

Maximum temperature yesterday: 45 °F (at 6:00 PM)
Minimum temperature yesterday: 35 °F (at 2:00 AM)
Average temperature yesterday: 39 °F

Past Weeks' High & Low Weather Summary

 TemperatureHumidityPressure
High68 °F (Apr 11, 4:00 PM)99% (Apr 6, 9:00 AM)30.50 "Hg (Apr 6, 9:00 AM)
Low29 °F (Apr 9, 6:00 AM)25% (Apr 9, 4:00 PM)29.56 "Hg (Apr 16, 1:00 AM)
Average44 °F72%30.06 "Hg
* Reported Apr 4 7:00 PM — Apr 19 7:00 PM, Olsztyn, Weather by CustomWeather, © 2015

Note: Actual official high and low records may vary slightly from our data, if they occured in-between our weather recording intervals... More about our weather records

Advertising

Olsztyn weather history for previous 24 hours

 ConditionsComfort  
Time TempWeatherWind HumidityBarometerVisibility
7:00 PM
Sun, Apr 19
44 °FQuite cool.6 mph63%30.01 "Hg28 mi
6:00 PM44 °FQuite cool.7 mph54%30.01 "Hg28 mi
5:00 PM45 °FCool.7 mph51%30.02 "Hg25 mi
4:00 PM45 °FCool.7 mph60%30.03 "Hg22 mi
3:00 PM45 °FCool.7 mph56%30.04 "Hg19 mi
2:00 PM45 °FQuite cool.7 mph60%30.03 "Hg22 mi
1:00 PM45 °FCool.6 mph60%30.04 "Hg22 mi
12:00 PM45 °FQuite cool.5 mph67%30.05 "Hg18 mi
11:00 AM41 °FRain showers. Cloudy.3 mph83%30.06 "Hg9 mi
10:00 AM43 °FQuite cool.5 mph71%30.06 "Hg19 mi
9:00 AM41 °FQuite cool.3 mph80%30.05 "Hg11 mi
8:00 AM40 °FChilly.3 mph87%30.05 "Hg13 mi
7:00 AM39 °FChilly.2 mph88%30.04 "Hg11 mi
6:00 AM38 °FChilly.3 mph88%30.04 "Hg11 mi
4:00 AM38 °FChilly.2 mph87%30.03 "Hg14 mi
3:00 AM38 °FChilly.3 mph85%30.03 "Hg14 mi
2:00 AM38 °FChilly.3 mph83%30.04 "Hg17 mi
1:00 AM38 °FSprinkles. Overcast.3 mph83%30.05 "Hg16 mi
12:00 AM38 °FChilly.3 mph88%30.06 "Hg12 mi
11:00 PM
Sat, Apr 18
38 °FChilly.5 mph88%30.06 "Hg11 mi
10:00 PM39 °FChilly.5 mph86%30.06 "Hg12 mi
9:00 PM40 °FChilly.3 mph75%30.05 "Hg19 mi
8:00 PM42 °FQuite cool.3 mph70%30.04 "Hg25 mi
Weather by CustomWeather, © 2015

See weather overviewHow to use our weather pages